Zurück zum Katalog

STARLINK-37349

AktivKommunikationSSO
NORAD 68734·PAYLOAD·🇺🇸 United States

Gestartet Apr 15, 2026 von Vandenberg Space Force Base

Loading…

Nächste Überflüge (nächste 24 Stunden)

TLE

AktuellSource: CelesTrak SupGP

Epoche: Sep 14, 2026, 22:41 UTC

1 68734C 26082G   26257.94562500  .00070883  00000+0  22009-2 0  2576
2 68734  97.2846 120.2245 0001683  92.9403  45.2260 15.33395031    10

Verfolge STARLINK-37349 in Echtzeit mit AllMySat

Download on the App Store